#timestamp,LO_Frequency,Hit,StdDev 
1540544415.7,286047004.1,N
1540544435.6,286047004.8,N
1540544455.4,286047003.8,N
1540544475.2,286047004.2,N
1540544495.1,286047004.0,N
1540544496.0,286047004.0,N
1540544515.8,286047002.1,N
1540544535.6,286047000.2,N
1540544555.5,286047000.7,N
1540544575.3,286047000.0,N
1540544595.2,286047001.4,N
1540544615.9,286047000.7,N
1540544635.7,286047002.8,N
1540544655.6,286047000.9,N
1540544675.4,286046999.0,N
1540544695.2,286046999.1,N
1540544715.1,286046995.2,N
1540544716.0,286046995.2,N
1540544735.8,286046995.0,N
1540544755.7,286046996.2,N
1540544775.5,286046996.4,N
1540544795.3,286046994.9,N
1540544815.2,286046997.5,N
1540544835.0,286046998.0,N
1540544835.9,286046998.0,N
1540544855.8,286046997.4,N
1540544875.6,286046999.6,N
1540544895.4,286047000.4,N
1540544915.3,286046999.4,N
1540544935.1,286046997.7,N
1540544955.8,286046997.3,N
1540544975.7,286046999.4,N
1540544995.5,286046998.5,N
1540545015.4,286046998.8,N
1540545035.2,286046994.9,N
1540545055.0,286046997.2,N
1540545055.9,286046997.2,N
1540545075.8,286046997.0,N
1540545095.6,286046996.7,N
1540545115.4,286046997.9,N
1540545135.3,286046995.5,N
1540545155.1,286046995.2,N
1540545175.9,286046997.5,N
1540545195.7,286046995.6,N
1540545215.5,286046995.5,N
1540545235.4,286046993.4,Y
1540545255.2,286046997.1,P
1540545275.0,286046998.2,P
1540545275.9,286046998.2,P
1540545295.8,286046999.3,N
1540545315.6,286046996.7,Y
1540545335.5,286046998.3,P
1540545355.3,286047000.5,P
1540545375.1,286047000.3,N
1540545395.9,286046999.9,N
1540545415.7,286047001.2,N
1540545435.5,286047000.5,N
1540545455.4,286046999.9,N
1540545475.2,286047000.8,N
1540545495.1,286046998.6,N
1540545496.0,286046998.6,N
1540545515.8,286046996.9,N
1540545535.6,286046997.7,N
1540545555.5,286046997.2,N
1540545575.3,286047000.7,N
1540545595.1,286047000.8,N
1540545615.9,286046999.2,N
1540545635.7,286046999.0,N
1540545655.5,286046999.5,N
1540545675.4,286046996.6,N
1540545695.2,286046997.7,N
1540545715.1,286046997.3,N
1540545716.0,286046997.3,N
1540545735.8,286046996.7,N
1540545755.6,286046999.2,N
1540545775.5,286046998.7,N
1540545795.3,286046996.7,N
1540545815.1,286046994.9,Y
1540545835.9,286046997.9,P
1540545855.7,286046997.7,P
1540545875.6,286046995.8,P
1540545895.4,286046995.3,Y
1540545915.2,286047000.5,P
1540545935.1,286046998.3,N
1540545936.0,286046998.3,N
1540545955.8,286046998.8,N
1540545975.7,286046996.7,Y
1540545995.5,286046996.7,P
1540546015.3,286046999.6,N
1540546035.2,286046997.4,N
1540546055.0,286046997.0,N
1540546055.9,286046997.0,N
1540546075.7,286046997.4,N
1540546095.6,286046994.9,Y
1540546115.4,286046998.7,P
1540546135.3,286046996.8,P
1540546155.1,286046998.3,N
1540546156.0,286046998.3,N
1540546175.8,286046998.4,N
1540546195.7,286047001.1,N
1540546215.5,286046998.2,N
1540546235.4,286047000.8,N
1540546255.2,286047001.1,N
1540546275.0,286046999.9,N
1540546275.9,286046999.9,N
1540546295.8,286047000.4,N
1540546315.6,286047000.0,N
1540546335.4,286047000.1,N
1540546355.3,286047001.7,N
1540546375.1,286047004.0,N
1540546395.9,286047005.9,Y
1540546415.7,286047006.0,P
1540546435.5,286047002.6,N
1540546455.4,286047002.6,N
1540546475.2,286047002.2,N
1540546495.0,286047000.3,N
1540546496.0,286047000.3,N
1540546515.8,286047002.8,N
1540546535.6,286047001.0,N
1540546555.5,286047000.8,N
1540546575.3,286047001.0,N
1540546595.1,286046999.8,N
1540546615.9,286047001.8,N
1540546635.7,286047001.7,N
1540546655.5,286047002.4,N
1540546675.4,286047002.6,N
1540546695.2,286047003.9,N
1540546715.1,286047002.4,N
1540546716.0,286047002.4,N
1540546735.8,286046999.9,N
1540546755.6,286047000.4,N
1540546775.5,286047000.9,N
1540546795.3,286047001.1,N
1540546815.1,286047000.1,N
1540546835.9,286046999.7,N
1540546855.7,286046999.9,N
1540546875.5,286046999.9,N
1540546895.4,286047000.6,N
1540546915.2,286046999.1,N
1540546935.1,286046997.1,N
1540546936.0,286046997.1,N
1540546955.8,286046999.2,N
1540546975.6,286046998.3,N
1540546995.5,286047000.8,N
1540547015.3,286047001.4,N
1540547035.1,286047004.2,N
1540547055.9,286047003.9,N
1540547075.7,286047005.9,Y
1540547095.6,286047004.1,P
1540547115.4,286047004.1,N
1540547135.2,286047002.8,N
1540547155.1,286047002.5,N
1540547156.0,286047002.5,N
1540547175.8,286047000.1,N
1540547195.6,286047002.0,N
1540547215.5,286047002.5,N
1540547235.3,286047001.3,N
1540547255.2,286047004.2,Y
1540547275.9,286046998.4,P
1540547295.7,286046996.9,N
1540547315.6,286046997.5,N
1540547335.4,286046997.7,N
1540547355.2,286046997.8,N
1540547375.1,286046997.7,N
1540547376.0,286046997.7,N
1540547395.8,286046997.4,N
1540547415.6,286046997.8,N
1540547435.5,286046999.1,N
1540547455.3,286046998.4,N
1540547475.2,286046998.3,N
1540547495.9,286046998.3,N
1540547515.7,286046998.8,N
1540547535.6,286046999.6,N
1540547555.4,286047001.1,N
1540547575.2,286046999.4,N
1540547595.1,286046999.6,N
1540547596.0,286046999.6,N
1540547615.8,286046999.1,N
1540547635.7,286047000.7,N
1540547655.5,286046999.8,N
1540547675.3,286047001.1,N
1540547695.2,286047000.9,N
1540547715.9,286047000.5,N
1540547735.7,286047002.4,N
1540547755.6,286046998.1,N
1540547775.4,286046998.4,N
1540547795.2,286046999.4,N
1540547815.1,286046998.8,N
1540547816.0,286046998.8,N
1540547835.8,286046998.6,N
1540547855.7,286046999.3,N
1540547875.5,286047001.2,N
1540547895.3,286046998.2,N
1540547915.2,286046997.1,N
1540547935.0,286046997.0,N
1540547935.9,286046997.0,N
1540547955.8,286046994.9,Y
1540547975.6,286046997.2,P
1540547995.4,286046996.5,P
